Theta_e
363 359 358 360 358 356 355 355 361 360 364 360 362 362 362 359 358 358 355 357 358 355
362 361 359 360 358 350 357 358 361 362 362 360 361 361 363 359 357 358 356 356 358 355
359 361 360 359 356 356 357 358 360 361 362 362 363 363 366 357 359 358 355 356 358 359
357 358 352 350 354 357 357 357 357 358 362 363 362 362 365 363 360 359 361 358 356 359
352 356 354 356 357 360 359 359 360 360 358 360 362 362 361 360 358 358 357 358 359 355
350 344 343 345 344 348 352 357 359 361 361 360 360 362 361 361 361 360 357 361 359 357
343 342 342 346 348 347 350 351 352 356 359 361 360 360 360 361 360 360 358 359 361 360
346 347 348 350 350 349 349 347 349 351 353 357 359 356 354 353 356 359 360 358 358 357
344 345 346 347 347 348 349 350 349 348 349 351 355 343 341 349 345 349 357 356 359 360
341 341 342 343 343 344 345 348 348 348 347 349 351 332 336 337 340 338 345 355 355 355
340 340 342 342 341 341 341 342 344 345 349 348 349 331 330 334 343 346 347 351 350 351
340 338 340 340 340 341 340 339 342 342 345 348 349 329 327 331 343 342 345 347 346 345
340 338 337 340 341 342 340 338 336 337 343 338 346 333 326 330 342 343 343 348 349 332
336 338 339 341 339 338 337 337 338 337 340 342 341 345 323 323 342 342 341 343 343 344
Wind_Speed
11 8 8 9 8 6 7 6 7 8 8 12 12 11 10 9 9 9 8 8 6 4
7 9 7 7 7 6 8 9 9 9 10 11 11 12 11 9 9 8 9 8 8 7
6 7 7 6 10 11 10 9 10 11 12 12 12 12 12 11 11 11 10 9 11 10
5 6 6 7 8 8 10 10 10 11 12 13 13 13 11 13 13 13 12 13 11 12
4 5 7 7 6 6 9 10 12 11 13 13 13 13 14 14 13 15 15 15 14 15
3 5 4 5 6 6 7 8 10 10 12 13 13 13 14 14 14 14 15 14 14 16
5 6 7 7 7 8 8 10 11 10 11 12 12 11 12 12 12 14 15 14 14 16
5 7 8 9 9 10 10 11 11 11 11 11 10 9 9 11 9 13 16 16 15 16
6 7 8 9 10 11 11 12 12 12 12 12 8 9 17 15 12 14 17 17 17 16
9 10 10 10 10 10 11 12 12 13 13 12 9 13 15 16 11 12 13 16 15 15
13 13 13 11 10 9 10 11 12 13 13 13 11 14 16 16 15 12 14 13 14 15
13 13 13 14 12 11 10 11 12 13 13 14 14 14 18 13 14 16 16 13 13 15
14 14 15 14 14 12 12 12 12 15 14 15 16 12 18 18 14 15 13 14 16 13
16 16 15 15 13 13 13 13 14 15 14 16 17 16 15 19 16 14 14 13 13 12
Wind_Direction
231 242 256 253 279 266 262 232 209 243 223 237 241 232 215 215 220 218 222 227 237 210
227 238 257 271 267 264 268 271 240 245 241 241 240 229 228 233 221 230 213 228 218 223
225 234 245 252 259 267 257 253 271 262 250 239 233 231 228 236 220 225 224 210 211 211
211 234 239 256 262 257 263 251 247 253 253 244 237 235 223 233 247 229 219 239 216 209
206 226 247 260 268 268 265 270 267 263 261 254 246 234 237 234 235 230 233 225 233 221
236 257 284 295 307 314 309 294 283 276 265 261 257 247 235 238 246 243 237 236 227 231
271 295 305 314 297 307 305 301 301 295 283 274 264 261 257 252 246 243 241 234 233 232
306 299 296 291 293 297 297 296 297 294 293 286 250 232 229 215 245 261 256 243 232 232
291 287 284 284 285 287 285 288 286 288 292 292 281 241 184 192 192 211 231 232 233 231
301 290 277 268 265 269 280 284 279 282 283 281 261 208 206 212 229 241 243 244 231 231
304 298 292 277 261 262 272 277 278 275 276 279 268 200 223 233 238 245 248 245 240 243
288 284 281 271 264 268 272 274 275 273 273 268 273 200 215 238 252 264 255 248 251 255
293 286 278 270 269 272 271 272 267 269 267 265 263 249 214 214 247 250 249 250 248 222
288 284 277 272 268 269 272 278 277 272 266 264 263 260 217 212 233 254 261 256 261 239